Home   Weather   Denver   Past weeks

Flag for USA Past Weather in Denver, Colorado, USA — Yesterday and Last 2 Weeks

Now
21 °F

Passing clouds.


Feels Like: 11 °F
Forecast: 16 / 39 °F
Wind: 8 mph from Southwest

Location: Buckley Air Force Base

Current Time: Feb 26, 2017 at 1:03:29 am

Latest Report: Feb 25, 2017 at 11:58 pm


Visibility: 10 mi

Pressure: 29.82 "Hg (24.32 "Hg at 1593m altitude)

Humidity: 46%

Dew Point: 3 °F

Location of DenverLocation

Past Weather in Denver — Graph

°F

Denver Temperature Yesterday

Maximum temperature yesterday: 36 °F (at 1:58 pm)
Minimum temperature yesterday: 12 °F (at 5:58 am)
Average temperature yesterday: 23 °F

High & Low Weather Summary for the Past Weeks

 TemperatureHumidityPressure
High72 °F (Feb 16, 2:58 pm)100% (Feb 23, 5:08 am)30.50 "Hg (Feb 23, 5:08 am)
Low12 °F (Feb 25, 5:58 am)4% (Feb 16, 11:58 am)29.41 "Hg (Feb 19, 1:58 pm)
Average41 °F45%29.89 "Hg
* Reported Feb 10 11:58 pm — Feb 25 11:58 pm, Denver, Weather by CustomWeather, © 2017

Note: Actual official high and low records may vary slightly from our data, if they occured in-between our weather recording intervals... More about our weather records

Advertising

Denver Weather History for the Previous 24 Hours

Scroll right to see more
 ConditionsComfort  
Time TempWeatherWind HumidityBarometerVisibility
11:58 pm
Sat, Feb 25
21 °FPassing clouds.8 mph46%29.82 "Hg10 mi
10:58 pm17 °FPassing clouds.8 mph57%29.86 "Hg10 mi
9:58 pm23 °FPassing clouds.6 mph44%29.84 "Hg10 mi
8:58 pm24 °FPassing clouds.8 mph40%29.86 "Hg10 mi
7:58 pm26 °FPassing clouds.10 mph35%29.86 "Hg10 mi
6:58 pm25 °FPassing clouds.7 mph29%29.91 "Hg10 mi
5:58 pm29 °FPassing clouds.9 mph23%29.91 "Hg10 mi
3:58 pm33 °FBroken clouds.9 mph23%29.87 "Hg10 mi
2:58 pm35 °FBroken clouds.9 mph21%29.87 "Hg10 mi
1:58 pm36 °FPartly sunny.9 mph19%29.86 "Hg10 mi
12:58 pm35 °FPartly sunny.No wind23%29.88 "Hg10 mi
11:58 am32 °FPartly sunny.10 mph25%29.93 "Hg10 mi
10:58 am30 °FPartly sunny.6 mph30%29.96 "Hg10 mi
9:58 am27 °FPartly sunny.8 mph33%29.98 "Hg10 mi
8:58 am24 °FPartly sunny.8 mph49%30.02 "Hg10 mi
7:58 am17 °FScattered clouds.8 mph68%30.06 "Hg10 mi
6:58 am14 °FScattered clouds.8 mph68%30.08 "Hg10 mi
5:58 am12 °FPassing clouds.7 mph75%30.09 "Hg10 mi
4:58 am15 °FPassing clouds.9 mph73%30.07 "Hg10 mi
3:58 am15 °FPassing clouds.13 mph79%30.07 "Hg10 mi
2:58 am17 °FPassing clouds.14 mph79%30.07 "Hg10 mi
1:58 am16 °FPartly cloudy.10 mph88%30.10 "Hg10 mi
Weather by CustomWeather, © 2017

See weather overviewHow to use our weather pages